| time (UTC) | temp F | wind direction | speed MPH | gust MPH | rain 1hr in | rain 24hr in | rain mn in | humidity % | barometer mb |
| 20260505075022 | 60 | 83 | 4.0 | 7.0 | 0.00 | 0.00 | 0.00 | 61 | 1015.1 |
| 20260505074021 | 60 | 76 | 3.0 | 9.0 | 0.00 | 0.00 | 0.00 | 60 | 1015.1 |
| 20260505073022 | 59 | 52 | 3.0 | 11.0 | 0.00 | 0.00 | 0.00 | 63 | 1015.1 |
| 20260505072022 | 59 | 81 | 4.0 | 12.0 | 0.00 | 0.00 | 0.00 | 64 | 1015.1 |
| 20260505071024 | 60 | 79 | 4.0 | 9.0 | 0.00 | 0.00 | 0.00 | 63 | 1015.0 |
| 20260505070022 | 60 | 92 | 5.0 | 11.0 | 0.00 | 0.00 | 0.00 | 63 | 1015.0 |
| 20260505065024 | 60 | 86 | 6.0 | 11.0 | 0.00 | 0.00 | 0.00 | 62 | 1014.8 |
| 20260505064024 | 62 | 83 | 5.0 | 13.0 | 0.00 | 0.00 | 0.00 | 60 | 1014.9 |
| 20260505063022 | 63 | 70 | 4.0 | 9.0 | 0.00 | 0.00 | 0.00 | 57 | 1014.9 |
| 20260505062022 | 62 | 62 | 5.0 | 10.0 | 0.00 | 0.00 | 0.00 | 58 | 1014.9 |
| 20260505061021 | 62 | 103 | 4.0 | 9.0 | 0.00 | 0.00 | 0.00 | 59 | 1014.9 |
| 20260505060022 | 62 | 81 | 4.0 | 13.0 | 0.00 | 0.00 | 0.00 | 61 | 1015.0 |
| 20260505055023 | 61 | 81 | 5.0 | 10.0 | 0.00 | 0.00 | 0.00 | 64 | 1015.0 |
| 20260505054022 | 61 | 102 | 5.0 | 10.0 | 0.00 | 0.00 | 0.00 | 65 | 1015.0 |
| 20260505053025 | 63 | 111 | 5.0 | 10.0 | 0.00 | 0.00 | 0.00 | 60 | 1015.0 |
| 20260505052022 | 63 | 73 | 3.0 | 11.0 | 0.00 | 0.00 | 0.00 | 60 | 1015.0 |
| 20260505051021 | 63 | 76 | 4.0 | 11.0 | 0.00 | 0.00 | 0.00 | 59 | 1014.9 |
| 20260505041021 | 64 | 97 | 6.0 | 11.0 | 0.00 | 0.00 | 0.00 | 61 | 1015.0 |
| 20260505040022 | 64 | 62 | 4.0 | 10.0 | 0.00 | 0.00 | 0.00 | 61 | 1015.0 |
| 20260505035021 | 64 | 69 | 6.0 | 13.0 | 0.00 | 0.00 | 0.02 | 60 | 1014.9 |
| 20260505034022 | 64 | 85 | 4.0 | 16.0 | 0.00 | 0.00 | 0.02 | 60 | 1015.0 |
| 20260505033022 | 64 | 61 | 5.0 | 11.0 | 0.00 | 0.00 | 0.02 | 60 | 1015.1 |
| 20260505032022 | 65 | 103 | 6.0 | 10.0 | 0.00 | 0.00 | 0.02 | 59 | 1015.1 |
| 20260505031024 | 65 | 69 | 5.0 | 12.0 | 0.00 | 0.00 | 0.02 | 59 | 1015.1 |
| 20260505030022 | 65 | 110 | 5.0 | 10.0 | 0.00 | 0.00 | 0.02 | 59 | 1015.1 |
| 20260505025026 | 65 | 98 | 5.0 | 13.0 | 0.00 | 0.00 | 0.02 | 57 | 1015.1 |
| 20260505024023 | 65 | 103 | 4.0 | 12.0 | 0.00 | 0.00 | 0.02 | 57 | 1015.2 |
| 20260505023022 | 65 | 99 | 5.0 | 11.0 | 0.00 | 0.00 | 0.02 | 58 | 1015.3 |
| 20260505022021 | 65 | 108 | 4.0 | 8.0 | 0.00 | 0.00 | 0.02 | 58 | 1015.3 |
| 20260505021022 | 65 | 87 | 4.0 | 11.0 | 0.00 | 0.00 | 0.02 | 59 | 1015.4 |
| 20260505020021 | 66 | 99 | 6.0 | 13.0 | 0.00 | 0.00 | 0.02 | 58 | 1015.3 |
| 20260505015024 | 66 | 102 | 3.0 | 7.0 | 0.00 | 0.00 | 0.02 | 58 | 1015.3 |
| 20260505014022 | 65 | 95 | 4.0 | 9.0 | 0.00 | 0.00 | 0.02 | 59 | 1015.3 |
| 20260505013021 | 66 | 121 | 3.0 | 8.0 | 0.00 | 0.00 | 0.02 | 56 | 1015.2 |
| 20260505012024 | 66 | 95 | 2.0 | 7.0 | 0.00 | 0.00 | 0.02 | 55 | 1015.2 |
| 20260505011022 | 66 | 47 | 3.0 | 7.0 | 0.00 | 0.00 | 0.02 | 56 | 1015.2 |
| 20260505010021 | 66 | 72 | 1.0 | 8.0 | 0.00 | 0.00 | 0.02 | 56 | 1015.0 |
| 20260505005022 | 66 | 53 | 2.0 | 7.0 | 0.00 | 0.00 | 0.02 | 56 | 1014.8 |
| 20260505004022 | 66 | 69 | 2.0 | 5.0 | 0.00 | 0.00 | 0.02 | 57 | 1014.8 |
| 20260505003022 | 66 | 71 | 2.0 | 7.0 | 0.00 | 0.00 | 0.02 | 58 | 1014.6 |
| 20260505002022 | 65 | 54 | 3.0 | 8.0 | 0.00 | 0.00 | 0.02 | 57 | 1014.6 |
| 20260505001025 | 65 | 60 | 3.0 | 10.0 | 0.00 | 0.00 | 0.02 | 58 | 1014.5 |
| 20260505000024 | 65 | 150 | 4.0 | 11.0 | 0.00 | 0.00 | 0.02 | 61 | 1014.4 |
| 20260504235021 | 64 | 105 | 3.0 | 7.0 | 0.00 | 0.00 | 0.02 | 63 | 1014.3 |
| 20260504234024 | 63 | 131 | 3.0 | 7.0 | 0.00 | 0.00 | 0.02 | 67 | 1014.4 |
| 20260504233022 | 63 | 62 | 5.0 | 9.0 | 0.00 | 0.00 | 0.02 | 69 | 1014.1 |
| 20260504232022 | 62 | 90 | 4.0 | 7.0 | 0.00 | 0.00 | 0.02 | 75 | 1014.3 |
| 20260504231021 | 61 | 73 | 4.0 | 8.0 | 0.00 | 0.00 | 0.02 | 79 | 1014.4 |
| 20260504230023 | 61 | 104 | 3.0 | 7.0 | 0.00 | 0.00 | 0.02 | 79 | 1014.9 |
| 20260504225022 | 68 | 353 | 1.0 | 7.0 | 0.00 | 0.00 | 0.00 | 53 | 1015.1 |
| 20260504224022 | 68 | 143 | 3.0 | 7.0 | 0.00 | 0.00 | 0.00 | 52 | 1014.3 |
| 20260504223021 | 69 | 113 | 2.0 | 10.0 | 0.00 | 0.00 | 0.00 | 52 | 1014.2 |
| 20260504222022 | 69 | 119 | 4.0 | 8.0 | 0.00 | 0.00 | 0.00 | 52 | 1014.3 |
| 20260504221022 | 69 | 98 | 3.0 | 10.0 | 0.00 | 0.00 | 0.00 | 52 | 1014.1 |
| 20260504220021 | 70 | 93 | 2.0 | 8.0 | 0.00 | 0.00 | 0.00 | 51 | 1014.2 |
| 20260504215022 | 70 | 70 | 4.0 | 8.0 | 0.00 | 0.00 | 0.00 | 48 | 1014.2 |
| 20260504214021 | 72 | 82 | 3.0 | 6.0 | 0.00 | 0.00 | 0.00 | 48 | 1014.2 |
| 20260504213028 | 72 | 146 | 4.0 | 10.0 | 0.00 | 0.00 | 0.00 | 49 | 1014.3 |
| 20260504212021 | 72 | 111 | 3.0 | 10.0 | 0.00 | 0.00 | 0.00 | 46 | 1014.3 |
| 20260504211022 | 72 | 77 | 4.0 | 10.0 | 0.00 | 0.00 | 0.00 | 46 | 1014.3 |
| 20260504210023 | 73 | 347 | 2.0 | 8.0 | 0.00 | 0.00 | 0.00 | 46 | 1014.3 |
| 20260504205024 | 73 | 343 | 3.0 | 5.0 | 0.00 | 0.00 | 0.00 | 49 | 1014.3 |
| 20260504204021 | 72 | 272 | 2.0 | 10.0 | 0.00 | 0.00 | 0.00 | 46 | 1014.3 |
| 20260504203021 | 72 | 69 | 2.0 | 9.0 | 0.00 | 0.00 | 0.00 | 46 | 1014.2 |
| 20260504202022 | 71 | 88 | 1.0 | 5.0 | 0.00 | 0.00 | 0.00 | 48 | 1014.4 |
| 20260504201021 | 72 | 285 | 2.0 | 9.0 | 0.00 | 0.00 | 0.00 | 51 | 1014.7 |
| 20260504200022 | 71 | 128 | 2.0 | 7.0 | 0.00 | 0.00 | 0.00 | 49 | 1014.7 |
| 20260504195021 | 68 | 116 | 3.0 | 8.0 | 0.00 | 0.00 | 0.00 | 49 | 1014.9 |
| 20260504194022 | 69 | 160 | 3.0 | 10.0 | 0.00 | 0.00 | 0.00 | 49 | 1014.9 |
| 20260504193023 | 70 | 307 | 3.0 | 7.0 | 0.00 | 0.00 | 0.00 | 47 | 1015.1 |
| 20260504192022 | 70 | 270 | 3.0 | 7.0 | 0.00 | 0.00 | 0.00 | 46 | 1015.0 |
| 20260504191021 | 71 | 244 | 1.0 | 10.0 | 0.00 | 0.00 | 0.00 | 46 | 1015.2 |
| 20260504190021 | 72 | 341 | 3.0 | 9.0 | 0.00 | 0.00 | 0.00 | 47 | 1015.3 |
| 20260504185024 | 70 | 79 | 4.0 | 11.0 | 0.00 | 0.00 | 0.00 | 47 | 1015.5 |
| 20260504184021 | 73 | 43 | 1.0 | 10.0 | 0.00 | 0.00 | 0.00 | 45 | 1015.6 |
| 20260504183022 | 72 | 202 | 2.0 | 8.0 | 0.00 | 0.00 | 0.00 | 45 | 1015.6 |
| 20260504182022 | 72 | 270 | 1.0 | 7.0 | 0.00 | 0.00 | 0.00 | 46 | 1015.8 |
| 20260504181021 | 71 | 109 | 3.0 | 8.0 | 0.00 | 0.00 | 0.00 | 49 | 1015.9 |
| 20260504180022 | 69 | 253 | 2.0 | 7.0 | 0.00 | 0.00 | 0.00 | 51 | 1016.1 |
| 20260504175021 | 68 | 265 | 2.0 | 7.0 | 0.00 | 0.00 | 0.00 | 53 | 1016.3 |
| 20260504174022 | 68 | 255 | 1.0 | 8.0 | 0.00 | 0.00 | 0.00 | 56 | 1016.3 |
| 20260504173022 | 67 | 324 | 2.0 | 7.0 | 0.00 | 0.00 | 0.00 | 51 | 1016.3 |
| 20260504172021 | 67 | 81 | 2.0 | 6.0 | 0.00 | 0.00 | 0.00 | 49 | 1016.4 |
| 20260504171022 | 68 | 101 | 2.0 | 7.0 | 0.00 | 0.00 | 0.00 | 49 | 1016.5 |
| 20260504151026 | 65 | 305 | 4.0 | 12.0 | 0.00 | 0.00 | 0.00 | 43 | 1017.6 |
| 20260504141022 | 62 | 84 | 6.0 | 10.0 | 0.00 | 0.00 | 0.00 | 47 | 1017.3 |
| 20260504081022 | 56 | 280 | 2.0 | 7.0 | 0.00 | 0.00 | 0.00 | 41 | 1018.0 |